User: anonymous   Login
Location: El Carrer d�Abaix
(41.5797°N, 2.1791°E)
Time: 12:09:26
(UTC+00:00)
Language:

COSMOS 2455 - Orbit

View from above orbital plane
View from above orbital plane
View from above satellite
View from above satellite

Ground track
Ground track

The orbit data is extracted from the following two-line orbital elements,

1 36095U 09063A   20226.91052788 -.00000053  00000-0  16134-4 0  9991
2 36095  67.1483  39.4694 0008875 277.6343  82.3734 13.96769459547371
Epoch (UTC): 13 August 2020 21:51:09
Eccentricity: 0.0008875
inclination: 67.1483°
perigee height: 898 km
apogee height: 911 km
right ascension of ascending node: 39.4694°
argument of perigee: 277.6343°
revolutions per day: 13.96769459
mean anomaly at epoch: 82.3734°
orbit number at epoch: 54737

The dashed part of the orbit path shows where the satellite is in the earth's shadow,  

DLR